カタログに戻る

STARLINK-1828

運用中通信VLEO
NORAD 46725·PAYLOAD·🇺🇸 United States

打ち上げ Oct 18, 2020 から Cape Canaveral Space Force Station

Loading…

次のパス (今後24時間)

TLE

最新Source: CelesTrak SupGP

元期: Sep 15, 2026, 02:47 UTC

1 46725C 20073BH  26258.11645833  .00268990  00000+0  78993-3 0  2580
2 46725  53.0404  19.1890 0007329 318.3995 354.5455 15.91792225    14

AllMySatでSTARLINK-1828をリアルタイム追跡

Download on the App Store